Washington County, Wisconsin, United States
Lat: 43.37N, Lon: 88.22W
Wx Zone: WIZ059
Local Info
Past Weather Observations for Today

NOTE: This archive is for the closest National Weather Service station to Washington County. Information may differ from the station used for current weather conditions.

Click here for Long-term Archive

Time Weather Temperature Dewpoint Humidity Pressure Winds Precip Visibility
14:30
Overcast
34°F / 1°C 30°F / -1°C 87% 30.04 in
(1017 mb)
SSE 6.9 mph
(SSE 11 kph)
- 7SM
14:10
Overcast
Fog And Mist
34°F / 1°C 30°F / -1°C 87% 30.04 in
(1017 mb)
SSE 8.1 mph
(SSE 13 kph)
- 5SM
13:50
Overcast
34°F / 1°C 30°F / -1°C 87% 30.04 in
(1017 mb)
SSE 8.1 mph
(SSE 13 kph)
- 7SM
13:30
Overcast
34°F / 1°C 30°F / -1°C 87% 30.04 in
(1017 mb)
S 6.9 mph
(S 11 kph)
- 7SM
13:10
Overcast
34°F / 1°C 30°F / -1°C 87% 30.06 in
(1018 mb)
SSE 8.1 mph
(SSE 13 kph)
- 7SM
12:50
Overcast
34°F / 1°C 30°F / -1°C 87% 30.06 in
(1018 mb)
S 9.2 mph
(S 15 kph)
- 7SM
12:30
Overcast
34°F / 1°C 30°F / -1°C 87% 30.06 in
(1018 mb)
S 5.8 mph
(S 9 kph)
- 7SM
12:10
Overcast
34°F / 1°C 30°F / -1°C 87% 30.06 in
(1018 mb)
S 8.1 mph
(S 13 kph)
- 7SM
11:50
Overcast
34°F / 1°C 30°F / -1°C 87% 30.09 in
(1019 mb)
S 8.1 mph
(S 13 kph)
- 7SM
11:30
Overcast
34°F / 1°C 30°F / -1°C 87% 30.09 in
(1019 mb)
S 8.1 mph
(S 13 kph)
- 7SM
11:10
Overcast
34°F / 1°C 30°F / -1°C 87% 30.09 in
(1019 mb)
S 5.8 mph
(S 9 kph)
- 7SM
10:50
Overcast
34°F / 1°C 30°F / -1°C 87% 30.12 in
(1020 mb)
S 8.1 mph
(S 13 kph)
- 7SM
10:30
Overcast
34°F / 1°C 30°F / -1°C 87% 30.12 in
(1020 mb)
S 6.9 mph
(S 11 kph)
- 7SM
10:10
Overcast
32°F / 0°C 30°F / -1°C 93% 30.12 in
(1020 mb)
S 8.1 mph
(S 13 kph)
- 7SM
09:50
Overcast
Fog And Mist
32°F / 0°C 30°F / -1°C 93% 30.15 in
(1021 mb)
S 6.9 mph
(S 11 kph)
- 5SM
09:30
Overcast
Fog And Mist
32°F / 0°C 28°F / -2°C 87% 30.15 in
(1021 mb)
SSE 6.9 mph
(SSE 11 kph)
- 5SM
09:10
Overcast
Light Snow
32°F / 0°C 28°F / -2°C 87% 30.15 in
(1021 mb)
SSE 4.6 mph
(SSE 7 kph)
- 3SM
08:50
Overcast
Fog And Mist
32°F / 0°C 28°F / -2°C 87% 30.15 in
(1021 mb)
SSE 5.8 mph
(SSE 9 kph)
- 4SM
08:30
Overcast
Light Snow
32°F / 0°C 28°F / -2°C 87% 30.15 in
(1021 mb)
S 5.8 mph
(S 9 kph)
- 2 1/2SM
08:10
Overcast
Fog And Mist
32°F / 0°C 28°F / -2°C 87% 30.15 in
(1021 mb)
S 4.6 mph
(S 7 kph)
- 4SM
07:50
Overcast
Fog And Mist
32°F / 0°C 28°F / -2°C 87% 30.15 in
(1021 mb)
S 5.8 mph
(S 9 kph)
- 4SM
07:30
Overcast
Fog And Mist
32°F / 0°C 28°F / -2°C 87% 30.15 in
(1021 mb)
S 5.8 mph
(S 9 kph)
- 5SM
07:10
Overcast
Fog And Mist
32°F / 0°C 28°F / -2°C 87% 30.15 in
(1021 mb)
S 3.5 mph
(S 6 kph)
- 5SM
06:50
Overcast
Fog And Mist
32°F / 0°C 28°F / -2°C 87% 30.15 in
(1021 mb)
SSE 4.6 mph
(SSE 7 kph)
- 5SM
06:30
Overcast
Fog And Mist
32°F / 0°C 28°F / -2°C 87% 30.15 in
(1021 mb)
SSE 5.8 mph
(SSE 9 kph)
- 5SM
06:10
Overcast
32°F / 0°C 28°F / -2°C 87% 30.15 in
(1021 mb)
S 4.6 mph
(S 7 kph)
- 7SM
05:50
Overcast
32°F / 0°C 27°F / -3°C 80% 30.18 in
(1022 mb)
S 3.5 mph
(S 6 kph)
- 7SM
05:30
Overcast
32°F / 0°C 27°F / -3°C 80% 30.18 in
(1022 mb)
S 4.6 mph
(S 7 kph)
- 7SM
05:10
Overcast
30°F / -1°C 27°F / -3°C 86% 30.15 in
(1021 mb)
S 4.6 mph
(S 7 kph)
- 7SM
04:50
Overcast
30°F / -1°C 27°F / -3°C 86% 30.15 in
(1021 mb)
S 3.5 mph
(S 6 kph)
- 7SM
04:30
Overcast
30°F / -1°C 27°F / -3°C 86% 30.15 in
(1021 mb)
SSE 3.5 mph
(SSE 6 kph)
- 7SM
04:10
Overcast
30°F / -1°C 27°F / -3°C 86% 30.18 in
(1022 mb)
Calm - 7SM
03:50
Overcast
30°F / -1°C 27°F / -3°C 86% 30.18 in
(1022 mb)
Calm - 7SM
03:30
Overcast
30°F / -1°C 27°F / -3°C 86% 30.18 in
(1022 mb)
Calm - 7SM
03:10
Overcast
30°F / -1°C 27°F / -3°C 86% 30.18 in
(1022 mb)
Calm - 7SM
02:50
Overcast
30°F / -1°C 27°F / -3°C 86% 30.21 in
(1023 mb)
Calm - 7SM
02:30
Overcast
30°F / -1°C 27°F / -3°C 86% 30.21 in
(1023 mb)
Calm - 7SM
02:10
Overcast
30°F / -1°C 27°F / -3°C 86% 30.21 in
(1023 mb)
Calm - 7SM
01:50
Overcast
30°F / -1°C 27°F / -3°C 86% 30.21 in
(1023 mb)
Calm - 7SM
01:30
Overcast
30°F / -1°C 27°F / -3°C 86% 30.21 in
(1023 mb)
Calm - 7SM
01:10
Overcast
30°F / -1°C 27°F / -3°C 86% 30.21 in
(1023 mb)
SSE 3.5 mph
(SSE 6 kph)
- 7SM
00:50
Overcast
30°F / -1°C 27°F / -3°C 86% 30.21 in
(1023 mb)
S 3.5 mph
(S 6 kph)
- 7SM
00:30
Overcast
30°F / -1°C 27°F / -3°C 86% 30.21 in
(1023 mb)
S 3.5 mph
(S 6 kph)
- 7SM
00:10
Overcast
30°F / -1°C 27°F / -3°C 86% 30.21 in
(1023 mb)
Calm - 7SM
Time Weather Temperature Dewpoint Humidity Pressure Winds Precip Visibility


Weather for websites

WeatherForYou.com, LLC is not responsible for any damages or problems caused by this service. Current weather conditions are obtained from the closest station including government and personal stations which may have varying degrees of accuracy. Weather forecasts are derived from the NOAA NDFD. Like all things, this site belongs to Jesus Christ... He just trusts me to maintain it. If you have any questions or comments email webmaster@weatherforyou.com

Copyright © 2014, WeatherForYou.com LLC. All rights reserved.